Home   Weather   Pretoria   Past weeks

Flag for South Africa Past Weather in Pretoria, South Africa — Yesterday and Last 2 Weeks

Now
59 °F

Refreshingly cool.


Feels Like: 58 °F
Forecast: 53 / 82 °F
Wind: 6 mph from South

Location: Waterkloof Lmb

Current Time: Sep 29, 2016 at 12:12:38 AM

Latest Report: Sep 28, 2016 at 11:00 PM


Visibility: N/A

Pressure: 30.30 "Hg (25.85 "Hg at 1338m altitude)

Humidity: 21%

Dew Point: 19 °F

Location of PretoriaLocation

Past Weather in Pretoria — Graph

°F

Pretoria Temperature Yesterday

Maximum temperature yesterday: 81 °F (at 2:00 PM)
Minimum temperature yesterday: 59 °F (at 6:00 AM)
Average temperature yesterday: 69 °F

High & Low Weather Summary for the Past Weeks

 TemperatureHumidityPressure
High88 °F (Sep 23, 3:00 PM)94% (Sep 18, 1:00 PM)30.48 "Hg (Sep 18, 1:00 PM)
Low45 °F (Sep 18, 7:00 PM)7% (Sep 23, 6:00 PM)30.04 "Hg (Sep 15, 5:00 PM)
Average66 °F43%30.22 "Hg
* Reported Sep 13 11:00 PM — Sep 28 11:00 PM, Pretoria, Weather by CustomWeather, © 2016

Note: Actual official high and low records may vary slightly from our data, if they occured in-between our weather recording intervals... More about our weather records

Advertising

Pretoria Weather History for the Previous 24 Hours

Scroll right to see more
 ConditionsComfort  
Time TempWeatherWind HumidityBarometerVisibility
11:00 PM
Wed, Sep 28
59 °FRefreshingly cool.6 mph21%30.30 "HgN/A
10:00 PM63 °FMild.15 mph17%30.30 "HgN/A
9:00 PM63 °FMild.7 mph20%30.27 "HgN/A
8:00 PM68 °FMild.13 mph14%30.24 "HgN/A
7:00 PM70 °FMild.12 mph12%30.21 "HgN/A
6:00 PM73 °FMild.15 mph12%30.18 "HgN/A
5:00 PM77 °FPleasantly warm.16 mph13%30.18 "HgN/A
4:00 PM81 °FPleasantly warm.14 mph12%30.15 "HgN/A
3:00 PM81 °FPleasantly warm.12 mph15%30.12 "HgN/A
2:00 PM81 °FPleasantly warm.9 mph16%30.12 "HgN/A
1:00 PM79 °FPleasantly warm.10 mph18%30.15 "HgN/A
12:00 PM77 °FPleasantly warm.7 mph19%30.18 "HgN/A
11:00 AM75 °FMild.6 mph21%30.18 "HgN/A
10:00 AM72 °FMild.6 mph27%30.21 "HgN/A
9:00 AM68 °FMild.8 mph30%30.21 "HgN/A
8:00 AM64 °FMild.12 mph40%30.21 "HgN/A
7:00 AM61 °FRefreshingly cool.6 mph59%30.21 "HgN/A
6:00 AM59 °FCool.5 mph63%30.18 "HgN/A
5:00 AM61 °FCool.3 mph63%30.15 "HgN/A
3:00 AM63 °FMild.5 mph64%30.12 "HgN/A
2:00 AM64 °FMild.10 mph60%30.18 "HgN/A
1:00 AM64 °FMild.6 mph60%30.15 "HgN/A
12:00 AM64 °FMild.8 mph60%30.12 "HgN/A
Weather by CustomWeather, © 2016

See weather overviewHow to use our weather pages